Showing default

HAWK-9B, 59450

Orbit data source: Space-Track

HAWK-9B, 59450 is a payload satellite owned by HawkEye 360 (US) in LEO that was launched on Sun, 07 Apr 2024 UTC via an FALCON 9 launch vehicle from the Air Force Eastern Test Range (AFETR). Payload-class satellites include a variety of spacecraft equipped with specific instruments for various scientific and technological missions. These include communications satellites like Starlink; space stations such as the ISS; scientific satellites like the Hubble; Earth observation satellites from companies like Planet Labs, Umbra, and HawkEye 360; GPS; miniature CubeSats for education and research; and military/defense satellites.

Loading next visibility...
Identifier
59450, 2024-066J
Orbit
LEO
Country
Flag of USUS
Related business
Manufacturer
UTIAS-SFL
Mission
Operational Commercial Sigint
Bus & Motor
HAWK2G, Unknown motor
Mass
31 kg wet, 30 kg dry
Launch date (UTC)
2024-04-07 (2 years ago)
Launch vehicle
FALCON 9
Launch site
Air Force Eastern Test Range (AFETR)
Object type
Payload
Rocket body
Debris
Shape & HBR
Box + 2 Pan, 1.0 m
Radar Cross Section
0.240 m², Medium (>0.1 m² and < 1m²)

Expand to show TLE details & history
Last TLE update: 12 hours ago

TLE from 12 hours ago
0 HAWK-9B
1 59450U 24066J   26037.10167044  .00002790  00000-0  24804-3 0  9991
2 59450  45.6201 235.3339 0002398  36.6825 323.4220 14.98616735100167
Epoch: 2026-02-06T02:26Z
TLE epoch observation values (Epoch: 2026-02-06T02:26:24.326Z)
Latitude
-0°
Longitude
62.48816°
Altitude
569.898 km
Speed
7.578 km/s
True Right ascension
15h 41m 20s
True Declination
0° 00' 00"
Sunlit
Object was in daylight at epoch
Visualization orbit readout
Latitude
Unknown
Longitude
Unknown
Altitude
Unknown
Speed
Unknown
Apparent Right ascension
Unknown
Apparent Declination
Unknown
Sunlit
N/A
Visualization observer readout
Local Sidereal Time
16:07:58
Azimuth
Unknown
Elevation
Unknown
Doppler factor
Unknown
Orbital elements
Apogee altitude
574.322 km
Perigee altitude
570.989 km
Semi-major axis
6,950.792 km
Eccentricity
0.00024
Inclination
45.6201°
RAAN
235.3339°
Arg. of periapsis
36.6825°
True anomaly
323.40562°
Mean anomaly
323.422°
Eccentric anomaly
323.41381°
Mean motion
3.74534 °/min
Orbital period
96.12 mins
BSTAR
0.00024804
Loading maneuver chart data...
Computing Atmospheric mass density...
Loading historical data...
Loading historical data...
Loading historical data...
Loading historical data...
Loading historical data...
Loading historical data...
Loading historical data...

Documentation

Showing up to 5 results
|